When you browse on this site, cookies collect data to enhance your experience and personalize the content and advertising you see.
Visit our Privacy Policy to learn more. By continuing to use the site, you agree to this use of cookies and data.
  • In Lithuania
  • List of Countries
  • For 7 days
  • Water Temperature
  • Satellite Maps
  • Weather Map
  • Weather Widgets
  • user-avatar
    Login

    Hourly Weather Karolin

    Today, 19 April, Friday

    Time Temperature Precipitation Wind Pressure Humidity
    00:00 +10°C° 0 mm 3 mps 757 mmHg 64%
    01:00 +9°C° 0 mm 3 mps 757 mmHg 67%
    02:00 +8°C° 0 mm 3 mps 757 mmHg 70%
    03:00 +8°C° 0 mm 3 mps 757 mmHg 72%
    04:00 +7°C° 0 mm 3 mps 757 mmHg 73%
    05:00 +5°C° 0 mm 3 mps 757 mmHg 75%
    06:00 +8°C° 0 mm 3 mps 758 mmHg 71%
    07:00 +9°C° 0 mm 3 mps 758 mmHg 66%
    08:00 +10°C° 0 mm 3 mps 758 mmHg 61%
    09:00 +12°C° 0 mm 3 mps 758 mmHg 53%
    10:00 +13°C° 0 mm 3 mps 758 mmHg 46%
    11:00 +15°C° 0 mm 4 mps 758 mmHg 38%
    12:00 +17°C° 0 mm 4 mps 758 mmHg 36%
    13:00 +17°C° 0 mm 4 mps 758 mmHg 33%
    14:00 +18°C° 0 mm 4 mps 758 mmHg 31%
    15:00 +18°C° 0 mm 4 mps 758 mmHg 32%
    16:00 +18°C° 0 mm 3 mps 758 mmHg 33%
    17:00 +17°C° 0 mm 3 mps 757 mmHg 34%
    18:00 +16°C° 0 mm 3 mps 757 mmHg 39%
    19:00 +14°C° 0 mm 2 mps 757 mmHg 44%
    20:00 +12°C° 0 mm 1 mps 757 mmHg 49%
    21:00 +11°C° 0 mm 1 mps 757 mmHg 50%
    22:00 +10°C° 0 mm 0 mps 757 mmHg 52%
    23:00 +9°C° 0 mm 0 mps 757 mmHg 54%

    Tomorrow, 20 April, Saturday

    Time Temperature Precipitation Wind Pressure Humidity
    00:00 +8°C° 0 mm 0 mps 757 mmHg 55%
    01:00 +9°C° 0 mm 1 mps 757 mmHg 57%
    02:00 +9°C° 0 mm 1 mps 757 mmHg 58%
    03:00 +8°C° 0 mm 1 mps 757 mmHg 61%
    04:00 +8°C° 0 mm 1 mps 756 mmHg 63%
    05:00 +7°C° 0 mm 1 mps 756 mmHg 66%
    06:00 +9°C° 0 mm 1 mps 756 mmHg 63%
    07:00 +9°C° 0 mm 2 mps 756 mmHg 60%
    08:00 +12°C° 0 mm 2 mps 756 mmHg 57%
    09:00 +13°C° 0 mm 2 mps 756 mmHg 51%
    10:00 +14°C° 0 mm 3 mps 755 mmHg 46%
    11:00 +16°C° 0 mm 3 mps 755 mmHg 40%
    12:00 +16°C° 0 mm 3 mps 755 mmHg 37%
    13:00 +17°C° 0 mm 3 mps 754 mmHg 34%
    14:00 +17°C° 0 mm 4 mps 754 mmHg 31%
    15:00 +17°C° 0 mm 3 mps 754 mmHg 33%
    16:00 +17°C° 0 mm 3 mps 753 mmHg 34%
    17:00 +17°C° 0 mm 3 mps 753 mmHg 35%
    18:00 +16°C° 0 mm 3 mps 753 mmHg 41%
    19:00 +13°C° 0 mm 3 mps 753 mmHg 47%
    20:00 +13°C° 0 mm 2 mps 753 mmHg 52%
    21:00 +12°C° 0 mm 2 mps 753 mmHg 57%
    22:00 +11°C° 0 mm 1 mps 752 mmHg 62%
    23:00 +11°C° 0 mm 1 mps 752 mmHg 67%

    Day after tomorrow, 21 April, Sunday

    Time Temperature Precipitation Wind Pressure Humidity
    00:00 +10°C° 0 mm 1 mps 752 mmHg 68%
    01:00 +10°C° 0 mm 1 mps 752 mmHg 70%
    02:00 +9°C° 0 mm 2 mps 752 mmHg 71%
    03:00 +8°C° 0 mm 2 mps 751 mmHg 73%
    04:00 +8°C° 0 mm 2 mps 751 mmHg 74%
    05:00 +8°C° 0 mm 2 mps 751 mmHg 76%
    06:00 +8°C° 0.1 mm 2 mps 750 mmHg 76%
    07:00 +9°C° 0.1 mm 2 mps 750 mmHg 76%
    08:00 +9°C° 0.1 mm 2 mps 750 mmHg 76%
    09:00 +9°C° 1 mm 2 mps 750 mmHg 78%
    10:00 +9°C° 1 mm 2 mps 750 mmHg 80%
    11:00 +9°C° 1 mm 2 mps 750 mmHg 82%
    12:00 +10°C° 0.3 mm 2 mps 749 mmHg 77%
    13:00 +12°C° 0.3 mm 2 mps 749 mmHg 72%
    14:00 +12°C° 0.3 mm 2 mps 749 mmHg 68%
    15:00 +13°C° 0 mm 2 mps 749 mmHg 65%
    16:00 +13°C° 0 mm 2 mps 748 mmHg 63%
    17:00 +13°C° 0 mm 1 mps 748 mmHg 60%
    18:00 +12°C° 0.1 mm 1 mps 748 mmHg 67%
    19:00 +11°C° 0.1 mm 1 mps 748 mmHg 73%
    20:00 +10°C° 0.1 mm 1 mps 748 mmHg 80%
    21:00 +10°C° 0 mm 1 mps 748 mmHg 82%
    22:00 +8°C° 0 mm 2 mps 749 mmHg 84%
    23:00 +8°C° 0 mm 2 mps 749 mmHg 87%

    22 April, Monday

    Time Temperature Precipitation Wind Pressure Humidity
    00:00 +8°C° 0 mm 2 mps 749 mmHg 88%
    01:00 +7°C° 0 mm 2 mps 749 mmHg 89%
    02:00 +7°C° 0 mm 3 mps 749 mmHg 90%
    03:00 +7°C° 0 mm 3 mps 749 mmHg 92%
    04:00 +7°C° 0 mm 3 mps 749 mmHg 93%
    05:00 +5°C° 0 mm 3 mps 750 mmHg 94%
    06:00 +6°C° 0 mm 4 mps 750 mmHg 90%
    07:00 +7°C° 0 mm 4 mps 750 mmHg 87%
    08:00 +8°C° 0 mm 5 mps 750 mmHg 83%
    09:00 +10°C° 0 mm 5 mps 751 mmHg 75%
    10:00 +11°C° 0 mm 6 mps 751 mmHg 68%
    11:00 +14°C° 0 mm 6 mps 751 mmHg 61%
    12:00 +15°C° 0.4 mm 7 mps 751 mmHg 57%
    13:00 +15°C° 0.4 mm 7 mps 751 mmHg 54%
    14:00 +16°C° 0.4 mm 7 mps 751 mmHg 51%
    15:00 +16°C° 0.1 mm 7 mps 751 mmHg 50%
    16:00 +16°C° 0.1 mm 7 mps 751 mmHg 49%
    17:00 +16°C° 0.1 mm 7 mps 751 mmHg 49%
    18:00 +15°C° 0 mm 7 mps 751 mmHg 52%
    19:00 +13°C° 0 mm 6 mps 751 mmHg 56%
    20:00 +11°C° 0 mm 6 mps 751 mmHg 59%
    21:00 +10°C° 0 mm 6 mps 752 mmHg 59%
    22:00 +10°C° 0 mm 6 mps 752 mmHg 59%
    23:00 +9°C° 0 mm 7 mps 752 mmHg 60%

    23 April, Tuesday

    Time Temperature Precipitation Wind Pressure Humidity
    00:00 +9°C° 0 mm 7 mps 752 mmHg 60%
    01:00 +8°C° 0 mm 7 mps 752 mmHg 61%
    02:00 +8°C° 0 mm 7 mps 752 mmHg 62%
    03:00 +8°C° 0 mm 7 mps 752 mmHg 61%
    04:00 +6°C° 0 mm 7 mps 752 mmHg 60%
    05:00 +6°C° 0 mm 7 mps 752 mmHg 60%
    06:00 +7°C° 0 mm 8 mps 753 mmHg 58%
    07:00 +7°C° 0 mm 8 mps 753 mmHg 56%
    08:00 +8°C° 0 mm 9 mps 753 mmHg 55%
    09:00 +10°C° 0 mm 9 mps 753 mmHg 51%
    10:00 +12°C° 0 mm 9 mps 753 mmHg 47%
    11:00 +13°C° 0 mm 10 mps 753 mmHg 43%
    12:00 +13°C° 0 mm 10 mps 753 mmHg 42%
    13:00 +14°C° 0 mm 10 mps 752 mmHg 42%
    14:00 +16°C° 0 mm 10 mps 752 mmHg 41%
    15:00 +16°C° 0 mm 9 mps 752 mmHg 42%
    16:00 +16°C° 0 mm 9 mps 751 mmHg 43%
    17:00 +15°C° 0 mm 9 mps 751 mmHg 45%
    18:00 +13°C° 0 mm 8 mps 751 mmHg 48%
    19:00 +12°C° 0 mm 7 mps 751 mmHg 51%
    20:00 +11°C° 0 mm 6 mps 751 mmHg 54%
    21:00 +11°C° 0 mm 7 mps 751 mmHg 54%
    22:00 +10°C° 0 mm 7 mps 751 mmHg 54%
    23:00 +10°C° 0 mm 7 mps 751 mmHg 54%

    24 April, Wednesday

    Time Temperature Precipitation Wind Pressure Humidity
    00:00 +9°C° 0 mm 7 mps 751 mmHg 56%
    01:00 +9°C° 0 mm 7 mps 751 mmHg 57%
    02:00 +9°C° 0 mm 7 mps 751 mmHg 59%
    03:00 +8°C° 0 mm 7 mps 751 mmHg 59%
    04:00 +8°C° 0 mm 7 mps 751 mmHg 59%
    05:00 +6°C° 0 mm 7 mps 751 mmHg 60%
    06:00 +8°C° 0 mm 7 mps 751 mmHg 57%
    07:00 +9°C° 0 mm 8 mps 752 mmHg 55%
    08:00 +9°C° 0 mm 8 mps 752 mmHg 52%
    09:00 +10°C° 0 mm 8 mps 752 mmHg 51%
    10:00 +12°C° 0 mm 8 mps 752 mmHg 49%
    11:00 +13°C° 0 mm 9 mps 752 mmHg 48%
    12:00 +15°C° 0 mm 8 mps 752 mmHg 47%
    13:00 +16°C° 0 mm 8 mps 752 mmHg 45%
    14:00 +17°C° 0 mm 8 mps 752 mmHg 44%
    15:00 +17°C° 0 mm 8 mps 751 mmHg 46%
    16:00 +17°C° 0 mm 8 mps 751 mmHg 47%
    17:00 +17°C° 0 mm 7 mps 751 mmHg 48%
    18:00 +15°C° 0 mm 6 mps 751 mmHg 52%
    19:00 +14°C° 0 mm 5 mps 752 mmHg 56%
    20:00 +13°C° 0 mm 4 mps 752 mmHg 60%
    21:00 +12°C° 0 mm 5 mps 752 mmHg 60%
    22:00 +12°C° 0 mm 5 mps 752 mmHg 60%
    23:00 +10°C° 0 mm 5 mps 752 mmHg 60%
    Show more